Location: Sternwarte_Laufen
(47.9344°N, 12.9346°E)
Time: 20:18:25
(UTC+02:00)

N. Korean satellite - Visible Passes

Search period start: 18 October 2018 00:00
Search period end: 28 October 2018 00:00
Orbit: 459 x 510 km, 97.2° (Epoch: 17 October)

Date Brightness Start Highest point End Pass type
(mag) Time Alt. Az. Time Alt. Az. Time Alt. Az.
18 Oct 10.3 06:26:33 10° ENE 06:28:15 13° E 06:29:55 10° ESE visible
19 Oct 10.1 19:47:59 10° SW 19:50:08 15° W 19:52:18 10° NW visible
20 Oct 9.2 19:22:21 10° SSW 19:25:31 26° W 19:28:44 10° NW visible
21 Oct 9.7 06:45:47 10° NE 06:48:37 21° E 06:51:23 10° SE visible
21 Oct 7.8 18:57:22 10° S 19:00:59 49° W 19:04:39 10° NNW visible
22 Oct 10.4 06:22:45 10° ENE 06:23:57 11° E 06:25:07 10° ESE visible
22 Oct 6.7 18:32:48 10° SSE 18:36:32 85° ENE 18:40:19 10° NNW visible
23 Oct 10.0 19:43:28 10° SW 19:45:50 16° W 19:48:15 10° NW visible
24 Oct 8.6 07:05:32 10° NNE 07:08:53 34° E 07:12:10 10° SSE visible
24 Oct 8.9 19:17:57 10° SSW 19:21:14 29° W 19:24:32 10° NW visible
25 Oct 9.9 06:41:40 10° NE 06:44:17 19° E 06:46:51 10° SE visible
25 Oct 7.5 18:53:02 10° S 18:56:43 55° W 19:00:24 10° NNW visible
26 Oct 6.6 18:28:31 10° SSE 18:32:15 76° ENE 18:36:00 10° N visible
27 Oct 9.8 19:38:55 10° SW 19:41:30 18° W 19:44:06 10° NW visible
